{"data":{"norad_id":58831,"epoch":"2026-05-24T21:49:32.866752Z","epoch_age_seconds":79524,"freshness":"FRESH","line1":"1 58831U 24017F   26144.90940818  .00000005  00000+0  11922-4 0  9998","line2":"2 58831  53.1599 209.7326 0001196  80.7611 279.3526 15.31701843131730","mean_motion":15.31701843,"eccentricity":0.0001196,"inclination_deg":53.1599,"raan_deg":209.7326,"arg_perigee_deg":80.7611,"mean_anomaly_deg":279.3526,"bstar":1.1922e-5,"rev_number":13173,"period_min":94.013074840963,"perigee_km":469.9153763125,"apogee_km":471.55362637562,"semimajor_km":6848.8715013441,"source":"CELESTRAK","updated_at":"2026-05-25T13:38:18.753799Z"}}